User: anonymous   Login
Location: Melbourne
(37.8170°S, 144.9670°E)
Time: 04:26:53
(UTC+10:00)
Language:

Cosmos 962 Rocket - Orbit

View from above orbital plane
View from above orbital plane
View from above satellite
View from above satellite

Ground track
Ground track

The orbit data is extracted from the following two-line orbital elements,

1 10461U 77107B   17230.77964735 +.00000010 +00000-0 -46796-5 0  9994
2 10461 082.9516 326.9387 0032637 335.2858 134.7887 13.76780327999108
Epoch (UTC): 18 August 2017 18:42:41
Eccentricity: 0.0032637
inclination: 82.9516°
perigee height: 951 km
apogee height: 999 km
right ascension of ascending node: 326.9387°
argument of perigee: 335.2858°
revolutions per day: 13.76780327
mean anomaly at epoch: 134.7887°
orbit number at epoch: 99910

The dashed part of the orbit path shows where the satellite is in the earth's shadow,  

DLR